Location: Krasnoyarskiy Pitomnik
(51.1333°N, 71.6167°E)
Time: 20:38:02
(UTC+00:00)

Transit 2A Rocket - All Passes

Search period start: 12 April 2024 00:00
Search period end: 22 April 2024 00:00
Orbit: 587 x 907 km, 66.7° (Epoch: 11 April)

Date Brightness Start Highest point End Pass type
(mag) Time Alt. Az. Time Alt. Az. Time Alt. Az.
12 Apr - 09:03:36 10° SSW 09:08:01 63° ESE 09:12:51 10° NE daylight
12 Apr - 10:46:50 10° W 10:50:54 29° NW 10:55:19 10° NNE daylight
12 Apr - 12:32:15 10° NW 12:35:05 15° N 12:38:01 10° NNE daylight
12 Apr - 14:16:12 10° NNW 14:19:38 17° NNE 14:23:14 10° ENE daylight
12 Apr - 15:58:27 10° NNW 16:03:31 41° NE 16:08:56 10° ESE visible
12 Apr - 17:40:54 10° NW 17:46:12 52° WSW 17:51:53 10° SSE visible
13 Apr - 08:20:10 10° S 08:24:17 37° ESE 08:28:44 10° NE daylight
13 Apr - 10:02:21 10° WSW 10:06:43 41° NW 10:11:29 10° NNE daylight
13 Apr - 11:47:26 10° WNW 11:50:35 17° NNW 11:53:54 10° NNE daylight
13 Apr - 13:32:08 10° NNW 13:35:09 15° N 13:38:18 10° NE daylight
13 Apr - 15:14:38 10° NNW 15:19:19 30° NE 15:24:19 10° E visible
13 Apr - 16:56:53 10° NW 17:02:21 80° SW 17:08:13 10° SSE visible
13 Apr - 18:40:41 10° WNW 18:44:11 17° WSW 18:47:49 10° SW visible
14 Apr - 07:37:12 10° SSE 07:40:40 22° ESE 07:44:20 10° ENE daylight
14 Apr - 09:18:08 10° SW 09:22:38 64° NW 09:27:35 10° NE daylight
14 Apr - 11:02:35 10° WNW 11:06:09 20° NNW 11:09:56 10° NNE daylight
14 Apr - 12:47:52 10° NNW 12:50:38 14° N 12:53:31 10° NE daylight
14 Apr - 14:30:48 10° NNW 14:35:00 23° NNE 14:39:29 10° E daylight
14 Apr - 16:12:58 10° NW 16:18:24 70° NE 16:24:14 10° SE visible
14 Apr - 17:55:59 10° WNW 18:00:35 27° WSW 18:05:26 10° SSW visible
15 Apr - 06:55:11 10° SE 06:57:11 13° ESE 06:59:14 10° ENE daylight
15 Apr - 08:34:11 10° SSW 08:38:41 81° SE 08:43:39 10° NE daylight
15 Apr - 10:17:50 10° W 10:21:48 26° NNW 10:26:03 10° NNE daylight
15 Apr - 12:03:18 10° NW 12:06:05 15° N 12:09:00 10° NNE daylight
15 Apr - 13:46:54 10° NNW 13:50:38 19° NNE 13:54:33 10° ENE daylight
15 Apr - 15:29:07 10° NNW 15:34:20 48° NE 15:39:58 10° ESE visible
15 Apr - 17:11:42 10° NW 17:16:53 42° WSW 17:22:22 10° S visible
16 Apr - 07:50:33 10° SSW 07:54:53 48° ESE 07:59:36 10° NE daylight
16 Apr - 09:33:16 10° WSW 09:37:32 35° NW 09:42:11 10° NNE daylight
16 Apr - 11:18:32 10° NW 11:21:34 16° NNW 11:24:45 10° NNE daylight
16 Apr - 13:02:54 10° NNW 13:06:10 16° NNE 13:09:34 10° NE daylight
16 Apr - 14:45:17 10° NNW 14:50:11 35° NE 14:55:27 10° ESE visible
16 Apr - 16:27:37 10° NW 16:33:04 65° WSW 16:38:54 10° SSE visible
16 Apr - 18:12:07 10° WNW 18:14:43 13° WSW 18:17:23 10° SW visible
17 Apr - 07:07:20 10° S 07:11:12 29° ESE 07:15:21 10° NE daylight
17 Apr - 08:48:55 10° WSW 08:53:24 51° NW 08:58:19 10° NNE daylight
17 Apr - 10:33:41 10° WNW 10:37:05 19° NNW 10:40:42 10° NNE daylight
17 Apr - 12:18:43 10° NNW 12:21:38 15° N 12:24:41 10° NE daylight
17 Apr - 14:01:27 10° NNW 14:05:56 27° NNE 14:10:43 10° E daylight
17 Apr - 15:43:39 10° NW 15:49:10 84° NE 15:55:04 10° SE visible
17 Apr - 17:26:58 10° WNW 17:31:10 22° WSW 17:35:32 10° SSW visible
18 Apr - 06:24:43 10° SSE 06:27:39 17° ESE 06:30:42 10° ENE daylight
18 Apr - 08:04:49 10° SW 08:09:23 81° NW 08:14:24 10° NE daylight
18 Apr - 09:48:53 10° W 09:52:41 23° NNW 09:56:47 10° NNE daylight
18 Apr - 11:34:17 10° NW 11:37:05 15° N 11:40:01 10° NNE daylight
18 Apr - 13:17:34 10° NNW 13:21:34 21° NNE 13:25:49 10° ENE daylight
18 Apr - 14:59:46 10° NNW 15:05:08 58° NE 15:10:55 10° SE visible
18 Apr - 16:42:31 10° NW 16:47:30 34° WSW 16:52:46 10° S visible
19 Apr - 07:21:01 10° SSW 07:25:29 63° ESE 07:30:24 10° NE daylight
19 Apr - 09:04:12 10° W 09:08:23 30° NW 09:12:54 10° NNE daylight
19 Apr - 10:49:36 10° NW 10:52:33 15° N 10:55:38 10° NNE daylight
19 Apr - 12:33:36 10° NNW 12:37:08 18° NNE 12:40:50 10° ENE daylight
19 Apr - 14:15:54 10° NNW 14:21:01 41° NE 14:26:30 10° ESE daylight
19 Apr - 15:58:21 10° NW 16:03:44 53° WSW 16:09:28 10° SSE visible
19 Apr - 17:44:38 10° W 17:45:12 10° WSW 17:45:47 10° WSW visible
20 Apr - 06:37:35 10° S 06:41:44 37° ESE 06:46:15 10° NE daylight
20 Apr - 08:19:44 10° WSW 08:24:10 43° NW 08:29:01 10° NNE daylight
20 Apr - 10:04:46 10° WNW 10:08:02 17° NNW 10:11:29 10° NNE daylight
20 Apr - 11:49:30 10° NNW 11:52:37 16° N 11:55:53 10° NE daylight
20 Apr - 13:32:03 10° NNW 13:36:48 30° NE 13:41:52 10° E daylight
20 Apr - 15:14:20 10° NW 15:19:52 81° SW 15:25:47 10° SSE visible
20 Apr - 16:58:05 10° WNW 17:01:42 18° WSW 17:05:27 10° SSW visible
21 Apr - 05:54:37 10° SSE 05:58:07 22° ESE 06:01:50 10° ENE daylight
21 Apr - 07:35:30 10° SW 07:40:04 65° NW 07:45:07 10° NE daylight
21 Apr - 09:19:55 10° WNW 09:23:35 21° NNW 09:27:30 10° NNE daylight
21 Apr - 11:05:11 10° NNW 11:08:04 15° N 11:11:05 10° NE daylight
21 Apr - 12:48:11 10° NNW 12:52:29 24° NNE 12:57:01 10° E daylight
21 Apr - 14:30:24 10° NW 14:35:53 70° NE 14:41:47 10° SE daylight
21 Apr - 16:13:24 10° NW 16:18:05 28° WSW 16:23:01 10° SSW visible
